User: anonymous   Login
Location: Unspecified
(20.0000°S, 0.0000°E)
Time: 03:21:06
(UTC+00:00)
Language:

ITAMSAT 1 - Orbit

View from above orbital plane
View from above orbital plane
View from above satellite
View from above satellite

Ground track
Ground track

The orbit data is extracted from the following two-line orbital elements,

1 22826U 93061D   19201.95856935 -.00000026 +00000-0 +78574-5 0  9997
2 22826 098.8984 191.3213 0007837 252.0019 108.0309 14.30396271346518
Epoch (UTC): 20 July 2019 23:00:20
Eccentricity: 0.0007837
inclination: 98.8984°
perigee height: 785 km
apogee height: 796 km
right ascension of ascending node: 191.3213°
argument of perigee: 252.0019°
revolutions per day: 14.30396271
mean anomaly at epoch: 108.0309°
orbit number at epoch: 34651

The dashed part of the orbit path shows where the satellite is in the earth's shadow,  

DLR